{"data":{"norad_id":66155,"epoch":"2026-05-25T04:19:40.811808Z","epoch_age_seconds":52735,"freshness":"FRESH","line1":"1 66155U 25240K   26145.18033347  .00026080  00000+0  77994-3 0  9997","line2":"2 66155  53.1602  66.5222 0001079  77.6656 282.4467 15.34416088 33716","mean_motion":15.34416088,"eccentricity":0.0001079,"inclination_deg":53.1602,"raan_deg":66.5222,"arg_perigee_deg":77.6656,"mean_anomaly_deg":282.4467,"bstar":0.00077994,"rev_number":3371,"period_min":93.846774109162,"perigee_km":461.91730219599,"apogee_km":463.39354520102,"semimajor_km":6840.7924236985,"source":"CELESTRAK","updated_at":"2026-05-25T13:38:21.070402Z"}}